This is the latest recevied weather packets stored in our database for station/object KO4LCK. If no packets are shown the sender has not sent any weather packets the latest 10 day(s).
| Time | Temp. | Humidity | Pressure | Rain* | Wind** | Luminosity | Snow |
|---|---|---|---|---|---|---|---|
| 1788282809 | 35° C | 44% | 1021.1 hPa | 0 mm | - | 759 W/m² | - |
| 1788282508 | 35° C | 45% | 1021.4 hPa | 0 mm | - | 760 W/m² | - |
| 1788282203 | 35° C | 48% | 1021.3 hPa | 0 mm | - | 748 W/m² | - |
| 1788281901 | 35° C | 46% | 1021.4 hPa | 0 mm | - | 748 W/m² | - |
| 1788281596 | 35° C | 49% | 1021.4 hPa | 0 mm | - | 739 W/m² | - |
| 1788281293 | 33.89° C | 48% | 1021.5 hPa | 0 mm | - | 739 W/m² | - |
| 1788280988 | 33.89° C | 47% | 1021.6 hPa | 0 mm | - | 733 W/m² | - |
| 1788280683 | 34.44° C | 47% | 1021.7 hPa | 0 mm | - | 728 W/m² | - |
| 1788280382 | 34.44° C | 50% | 1021.8 hPa | 0 mm | - | 718 W/m² | - |
| 1788280078 | 33.89° C | 50% | 1021.8 hPa | 0 mm | - | 712 W/m² | - |
| 1788279777 | 34.44° C | 48% | 1021.7 hPa | 0 mm | - | 707 W/m² | - |
| 1788279476 | 34.44° C | 51% | 1021.8 hPa | 0 mm | - | 698 W/m² | - |
| 1788279176 | 33.33° C | 54% | 1021.7 hPa | 0 mm | - | 686 W/m² | - |
| 1788278872 | 33.33° C | 55% | 1021.9 hPa | 0 mm | - | 685 W/m² | - |
| 1788278568 | 33.33° C | 54% | 1021.9 hPa | 0 mm | - | 669 W/m² | - |
| 1788278267 | 33.33° C | 55% | 1021.9 hPa | 0 mm | - | 666 W/m² | - |
| 1788277962 | 33.33° C | 53% | 1021.8 hPa | 0 mm | - | 662 W/m² | - |
| 1788277657 | 33.33° C | 55% | 1022.1 hPa | 0 mm | - | 650 W/m² | - |
| 1788277353 | 32.78° C | 57% | 1022.1 hPa | 0 mm | - | 643 W/m² | - |
| 1788277048 | 32.22° C | 58% | 1022.1 hPa | 0 mm | - | 631 W/m² | - |
| 1788276747 | 33.33° C | 55% | 1022.4 hPa | 0 mm | - | 619 W/m² | - |
| 1788276447 | 32.78° C | 55% | 1022.3 hPa | 0 mm | - | 605 W/m² | - |
| 1788276146 | 32.78° C | 56% | 1022.4 hPa | 0 mm | - | 593 W/m² | - |
| 1788275841 | 32.78° C | 58% | 1022.4 hPa | 0 mm | - | 589 W/m² | - |
| 1788275541 | 31.67° C | 59% | 1022.4 hPa | 0 mm | - | 574 W/m² | - |
* Rain latest hour (hover to see other rain measurements)
** Current wind speed in m/s (hover to see current wind gust speed)